Satellite: AUBIESAT Catalog number: 37854 Epoch time: 12060.89654672 Element set: 0117 Inclination: 101.7173 deg RA of node: 051.9680 deg Eccentricity: 0.0251218 Arg of perigee: 298.8110 deg Mean anomaly: 058.8083 deg Mean motion: 14.79329377 rev/day Decay rate: 6.067e-05 rev/day^2 Epoch rev: 01837 Checksum: 319
Satellite: HRBE Catalog number: 37855 Epoch time: 12060.96887760 Element set: 0122 Inclination: 101.7198 deg RA of node: 052.0630 deg Eccentricity: 0.0251726 Arg of perigee: 298.7699 deg Mean anomaly: 058.8444 deg Mean motion: 14.79226339 rev/day Decay rate: 5.683e-05 rev/day^2 Epoch rev: 01838 Checksum: 338
Satellite: RS-39 Catalog number: 38051 Epoch time: 12061.34595031 Element set: 110 Inclination: 051.6515 deg RA of node: 313.0075 deg Eccentricity: 0.0011580 Arg of perigee: 014.4656 deg Mean anomaly: 095.3376 deg Mean motion: 15.22503962 rev/day Decay rate: 7.417e-05 rev/day^2 Epoch rev: 553 Checksum: 263
/EX
participants (1)
-
Ray Hoad